Location: Ferma
(41.9500°N, 44.5167°E)
Time: 11:21:03
(UTC+00:00)

Cosmos 1269 Rocket - Pass Details

Date: 29 May 2022
Orbit: 773 x 778 km, 74.1° (Epoch: 01 July)

Event Time Altitude Azimuth Distance (km) Brightness Sun altitude
Rises 20:46:15 0° 352° (N) 3,258 8.6 -26.3°
Reaches altitude 10° 20:49:12 10° 8° (N) 2,327 7.5 -26.3°
Maximum altitude 20:53:13 21° 57° (ENE) 1,666 6.0 -26.3°
Enters shadow 20:55:49 15° 94° (E) 1,971 6.0 -26.3°
